Regional Weather Roundup
Issued by NWS

Home | Current Version | Previous Version | Graphics & Text | Print | Product List | Glossary On
Versions: 1 2 3 4 5 6 7 8 9 10 11 12 13 14 15 16 17 18 19 20 21 22 23 24 25 26 27 28 29 30 31 32 33 34 35 36 37 38 39 40 41 42 43 44 45 46 47 48 49 50
000
ASUS43 KLOT 260204
RWRIL

ILLINOIS REGIONAL WEATHER ROUNDUP
NATIONAL WEATHER SERVICE CHICAGO/ROMEOVILLE IL
900 PM CDT MON SEP 25 2017

NOTE: "FAIR" INDICATES FEW OR NO CLOUDS BELOW 12,000 FEET WITH NO
SIGNIFICANT WEATHER AND/OR OBSTRUCTIONS TO VISIBILITY.

* THESE STATIONS ARE NOT UNDER NWS QUALITY CONTROL. THEY ALSO MAY NOT
  REPORT WEATHER SUCH AS PRECIPITATION OR FOG.

ILZ001-002-007-009-015-016-024-260300-
NORTHWEST ILLINOIS

CITY           SKY/WX    TMP DP  RH WIND       PRES   REMARKS
MOLINE         CLOUDY    72  68  87 CALM      29.90R
STERLING*      CLEAR     70  62  76 SE3       29.92S
SAVANNA*       CLOUDY    74  65  72 SE3       29.91S
$$

ILZ003-004-008-010-011-017-018-260300-
NORTH CENTRAL ILLINOIS

CITY           SKY/WX    TMP DP  RH WIND       PRES   REMARKS
ROCKFORD       CLEAR     77  59  53 S3        29.94R
FREEPORT*      CLEAR     70  60  71 S5        29.94F
ROCHELLE*      MOCLDY    71  61  70 SE5       29.94S
DE KALB*       CLOUDY    78  61  55 SE7       29.95F
$$

ILZ005-006-012>014-019>023-260300-
NORTHEAST ILLINOIS

CITY           SKY/WX    TMP DP  RH WIND       PRES   REMARKS
CHICAGO-OHARE  PTCLDY    79  56  45 SE8       29.94R HX  80
CHICAGO-MIDWAY PTCLDY    83  58  42 S6        29.94S HX  83
AURORA         CLOUDY    78  62  57 SE5       29.95R HX  80
LANSING*       CLEAR     73  62  68 CALM      29.96R
JOLIET*        CLOUDY    78  62  56 SE5       29.94S HX  80
WAUKEGAN       CLEAR     74  63  68 SE6       29.94S
DUPAGE AIRPORT CLEAR     75  61  61 CALM      29.94S
KANKAKEE*      CLEAR     73  60  64 SE6       29.96S
WHEELING       CLEAR     74  60  61 CALM      29.95S
MORRIS*        MOCLDY    76  61  58 SE5       29.93S
NORTHERLY ISL    N/A     74  64  71 SE3         N/A
$$

LMZ740>746-260300-
SOUTHERN LAKE MICHIGAN

STATION/POSITION SKY/WX   TEMP    WIND        PRES    VSBY  WAVE
                          AIR SEA DIR/SP/G                  HT/PER
                          (F)     (DEG/KT/KT) (MB)    (MI)  (FT/S)
SOUTHERN BUOY              74 71  100/  6/  6 1013.8          0
WILMETTE HARBOR            73 71  170/  6/  8   N/A           1
HARRISON CRIB              76     170/  7/  8   N/A
BURNHAM HARBOR             74                   N/A
CALUMET HARBOR             76      CALM  /  1 1013.6
BURNS HARBOR               80     170/  4/  6 1014.9R
MICHIGAN CITY              78     130/  6/  8   N/A
MICHIGAN CITY 6N           74 72  150/  4/  6   N/A           0
ST. JOSEPH                 76 73  160/  4/  4 1014.2R         0
$$

ILZ025>027-034>036-040-047-049-050-058-095>099-260300-
WEST-CENTRAL ILLINOIS

CITY           SKY/WX    TMP DP  RH WIND       PRES   REMARKS
QUINCY         CLOUDY    77  66  68 CALM      29.91F
GALESBURG*     CLEAR     69  63  81 CALM      29.94R
MACOMB*        CLEAR     71  64  79 CALM      29.95R
$$

ILZ028>032-037-038-041>044-048-051>054-059>061-260300-
CENTRAL ILLINOIS

CITY           SKY/WX    TMP DP  RH WIND       PRES   REMARKS
BLOOMINGTON    CLEAR     74  61  63 SE6       29.96R
DECATUR        CLEAR     77  61  57 CALM      29.94S
PEORIA         CLEAR     75  63  66 CALM      29.92R
LACON*         CLEAR     72  61  69 CALM      29.92S
LINCOLN*       CLEAR     73  64  71 CALM      29.94R
SPRINGFIELD    CLEAR     76  63  64 S5        29.93R
TAYLORVILLE    NOT AVBL
$$

ILZ033-039-045-046-055>057-062-063-260300-
EAST-CENTRAL ILLINOIS

CITY           SKY/WX    TMP DP  RH WIND       PRES   REMARKS
CHAMPAIGN      PTCLDY    76  59  55 SE6       29.96R
MATTOON        CLEAR     73  61  65 SE6       29.94S
$$

ILZ079-100>102-260300-
SOUTHWEST ILLINOIS

CITY           SKY/WX    TMP DP  RH WIND       PRES   REMARKS
ALTON          CLEAR     72  64  78 SE8       29.94R
BELLEVILLE     CLEAR     75  64  67 CALM      29.93R
CAHOKIA*       CLEAR     77  62  59 S5        29.92R
SPARTA*        CLEAR     75  63  65 SE3       29.95S
$$

ILZ064>066-069>071-074>076-080>082-084>086-088>090-092>094-260300-
SOUTH-CENTRAL ILLINOIS

CITY           SKY/WX    TMP DP  RH WIND       PRES   REMARKS
CARBONDALE     CLEAR     70  68  93 CALM      29.94R
EFFINGHAM*     CLEAR     74  63  68 SE3       29.96S
MARION         CLEAR     73  64  73 CALM      29.96R
MT. VERNON       N/A     75  66  73 CALM      29.95R
CENTRALIA*     CLEAR     71  64  79 CALM      29.94S
SALEM*         CLEAR     78  62  58 CALM      29.95R
METROPOLIS*    CLEAR     71  67  88 CALM      29.95S
$$

ILZ067-068-072-073-078-083-087-091-260300-
SOUTHEAST ILLINOIS

CITY           SKY/WX    TMP DP  RH WIND       PRES   REMARKS
LAWRENCEVILLE  CLEAR     76  67  73 CALM      29.96R
FLORA*         CLEAR     76  64  66 CALM      29.95S
FAIRFIELD*     CLEAR     73  62  68 CALM      29.94S
HARRISBURG*    CLEAR     74  65  74 CALM      29.95R
ROBINSON*      CLEAR     69  65  86 CALM      29.96S
CARMI*         CLEAR     70  65  85 CALM      29.95R
$$

ABBREVIATIONS USED IN REMARKS
   TC - TEMPERATURE IN CELSIUS
  WCI - WIND CHILL INDEX
   HX - HEAT INDEX
  VSB - VISIBILITY
$$





USA.gov is the U.S. government's official web portal to all federal, state and local government web resources and services.